CW9692 Weather Reports


time (UTC)temp
C
wind
direction
speed
KPH
gust
KPH
rain 1hr
cm
rain 24hr
cm
rain mn
cm
humidity
%
barometer
mb
20260510180021 25 129 0.0 9.7 0.00 0.00 0.00 51 1013.8
20260510174524 26 151 0.0 0.0 0.00 0.00 0.00 52 1013.9
20260510173010 25 154 0.0 0.0 0.00 0.00 0.00 52 1013.8
20260510171526 25 148 0.0 0.0 0.00 0.00 0.00 54 1014.0
20260510170021 25 150 0.0 0.0 0.00 0.00 0.00 57 1014.0
20260510164526 26 153 0.0 0.0 0.00 0.00 0.00 56 1014.1
20260510163037 26 208 0.0 0.0 0.00 0.00 0.00 49 1014.2
20260510161512 26 327 0.0 0.0 0.00 0.00 0.00 46 1014.3
20260510160018 25 309 0.0 0.0 0.00 0.00 0.00 49 1014.2
20260510154529 25 323 0.0 0.0 0.00 0.00 0.00 50 1014.3
20260510153025 25 269 0.0 0.0 0.00 0.00 0.00 53 1014.5
20260510151511 24 248 0.0 0.0 0.00 0.00 0.00 52 1014.3
20260510150017 23 292 0.0 0.0 0.00 0.00 0.00 54 1014.0
20260510144503 23 312 0.0 0.0 0.00 0.00 0.00 54 1013.8
20260510143008 22 296 0.0 0.0 0.00 0.00 0.00 57 1013.7
20260510141509 21 298 0.0 0.0 0.00 0.00 0.00 62 1013.8
20260510140015 20 298 0.0 0.0 0.00 0.00 0.00 66 1014.0
20260510134528 18 343 0.0 0.0 0.00 0.00 0.00 77 1013.8
20260510133002 17 343 0.0 0.0 0.00 0.00 0.00 84 1014.0
20260510131505 16 343 0.0 1.6 0.00 0.00 0.00 94 1014.1
20260510130012 15 360 0.0 3.2 0.00 0.00 0.00 96 1014.3
20260510124532 14 360 0.0 0.0 0.00 0.00 0.00 96 1014.4
20260510123019 13 360 0.0 3.2 0.00 0.00 0.00 96 1014.3
20260510121511 12 5 0.0 1.6 0.00 0.00 0.00 96 1014.1
20260510120011 12 15 0.0 1.6 0.00 0.00 0.00 96 1014.0
20260510114514 11 12 0.0 3.2 0.00 0.00 0.00 96 1013.9
20260510113018 10 30 0.0 0.0 0.00 0.00 0.00 95 1013.6
20260510111520 10 29 0.0 0.0 0.00 0.00 0.00 95 1013.3
20260510110010 10 352 0.0 0.0 0.00 0.00 0.00 95 1012.9
20260510104512 10 352 0.0 1.6 0.00 0.00 0.00 94 1012.6
20260510103020 10 117 0.0 0.0 0.00 0.00 0.00 94 1012.5
20260510101517 10 117 0.0 0.0 0.00 0.00 0.00 94 1012.5
20260510100031 9 134 0.0 0.0 0.00 0.00 0.00 94 1012.4
20260510094545 9 134 0.0 0.0 0.00 0.00 0.00 93 1012.3
20260510093012 10 134 0.0 0.0 0.00 0.00 0.00 93 1012.4
20260510091520 10 134 0.0 0.0 0.00 0.00 0.00 93 1012.3
20260510090025 10 134 0.0 0.0 0.00 0.00 0.00 93 1012.0
20260510084528 10 134 0.0 0.0 0.00 0.00 0.00 92 1011.8
20260510083018 10 134 0.0 0.0 0.00 0.00 0.00 92 1011.4
20260510081515 10 134 0.0 0.0 0.00 0.00 0.00 92 1011.2
20260510080027 10 134 0.0 0.0 0.00 0.00 0.00 92 1011.1
20260510074523 10 134 0.0 0.0 0.00 0.00 0.00 92 1011.0
20260510073026 11 134 0.0 0.0 0.00 0.00 0.00 92 1010.8
20260510071512 11 134 0.0 0.0 0.00 0.00 0.00 92 1010.9
20260510070016 11 134 0.0 0.0 0.00 0.00 0.00 91 1010.8
20260510064531 11 134 0.0 0.0 0.00 0.00 0.00 91 1010.9
20260510063024 11 134 0.0 0.0 0.00 0.00 0.00 91 1010.8
20260510061509 11 134 0.0 0.0 0.00 0.00 0.00 91 1010.7
20260510060016 12 134 0.0 0.0 0.00 0.00 0.00 90 1010.6
20260510054504 12 134 0.0 0.0 0.00 0.00 0.00 90 1010.7
20260510053008 12 134 0.0 0.0 0.00 0.00 0.00 89 1010.9
20260510051507 12 134 0.0 0.0 0.00 0.00 0.00 89 1010.9
20260510050015 12 134 0.0 0.0 0.00 0.00 0.00 89 1010.9
20260510044528 13 134 0.0 0.0 0.00 0.00 0.00 88 1011.0
20260510043004 13 134 0.0 0.0 0.00 0.00 0.00 88 1011.0
20260510041504 13 134 0.0 0.0 0.00 0.00 0.00 87 1011.0
20260510040012 13 134 0.0 0.0 0.00 0.00 0.00 87 1010.9
20260510034516 14 134 0.0 0.0 0.00 0.00 0.00 86 1010.8
20260510033017 14 134 0.0 0.0 0.00 0.00 0.00 85 1010.7
20260510031507 15 134 0.0 0.0 0.00 0.00 0.00 83 1010.8
20260510030008 15 134 0.0 0.0 0.00 0.00 0.00 82 1010.7
20260510024513 16 134 0.0 0.0 0.00 0.00 0.00 80 1010.6
20260510023016 16 134 0.0 0.0 0.00 0.00 0.00 80 1010.6
20260510021521 16 134 0.0 0.0 0.00 0.00 0.00 79 1010.5
20260510020007 16 134 0.0 0.0 0.00 0.00 0.00 77 1010.4
20260510014509 17 134 0.0 0.0 0.00 0.00 0.00 75 1010.2
20260510013014 17 134 0.0 0.0 0.00 0.00 0.00 73 1010.1
20260510011534 17 134 0.0 0.0 0.00 0.00 0.00 72 1009.9
20260510010023 17 134 0.0 0.0 0.00 0.00 0.00 72 1009.9
20260510004509 17 133 3.2 11.3 0.00 0.00 0.00 72 1009.8
20260510003015 18 148 3.2 11.3 0.00 0.00 0.00 72 1009.7
20260510001518 18 163 3.2 9.7 0.00 0.00 0.00 71 1009.6
20260510000041 18 168 6.4 16.1 0.00 0.00 0.00 71 1009.4
20260509234539 18 141 3.2 11.3 0.00 0.00 0.00 70 1009.3
20260509233013 18 140 4.8 14.5 0.00 0.00 0.00 69 1009.3
20260509231515 19 159 1.6 14.5 0.00 0.00 0.00 67 1009.2
20260509230019 20 148 1.6 16.1 0.00 0.00 0.00 64 1009.1
20260509224526 20 170 0.0 11.3 0.00 0.00 0.00 63 1009.1
20260509223023 20 301 0.0 0.0 0.00 0.00 0.00 65 1009.3
20260509221511 20 11 0.0 1.6 0.00 0.00 0.00 66 1009.2
20260509220017 21 346 0.0 1.6 0.00 0.00 0.00 67 1009.1
20260509214529 21 94 0.0 0.0 0.00 0.00 0.00 68 1009.0
20260509213029 21 125 0.0 0.0 0.00 0.00 0.00 64 1009.1
20260509211512 21 125 0.0 0.0 0.00 0.00 0.00 65 1008.9
20260509210008 21 240 0.0 0.0 0.00 0.00 0.00 64 1008.8
20260509204512 21 46 0.0 0.0 0.00 0.00 0.00 66 1008.9
20260509203004 21 254 0.0 0.0 0.00 0.00 0.00 55 1009.1
20260509201510 21 290 0.0 6.4 0.00 0.00 0.00 57 1009.2
20260509200014 20 68 0.0 9.7 0.00 0.00 0.00 68 1009.4
20260509194514 20 218 0.0 0.0 0.00 0.00 0.00 67 1009.6
20260509193011 20 226 0.0 0.0 0.00 0.00 0.00 67 1009.6
20260509191508 20 259 0.0 0.0 0.00 0.00 0.00 69 1009.7
20260509190015 19 259 0.0 0.0 0.00 0.00 0.00 73 1010.2
20260509184522 20 259 0.0 0.0 0.00 0.00 0.00 69 1010.5
20260509183016 21 259 0.0 0.0 0.00 0.00 0.00 62 1010.5
20260509181507 21 238 0.0 11.3 0.00 0.00 0.00 54 1010.5